sat.trackr.live / text

‹ back to catalog

STARLINK-37543

NORAD 68911 · 2026-097S

PAYLOAD ACTIVE UNKNOWN

§ Identity

Operator
Country
US
Launch date
2026-04-30
Launch site
AFWTR
Launch vehicle
Mass (kg)
RCS (m²)

Purposes: comms

External: N2YO · Heavens-Above · Gunter

§ Orbital elements

Epoch: 2026-05-25T02:08:33.862848Z

Period
92.95 min
Inclination
97.2858°
Eccentricity
0.0001184
Mean motion
15.49208982 rev/d
Perigee alt
418.2 km
Apogee alt
419.8 km
Semi-major
6,797.2 km
B*
3.8163e-4
RAAN
340.8938°
Arg perigee
105.5659°
Mean anomaly
254.5723°
Rev number
394

§ Raw data

STARLINK-375431 68911U 26097S   26145.08928082  .00020734  00000+0  38163-3 0  99932 68911  97.2858 340.8938 0001184 105.5659 254.5723 15.49208982  3948

JSON: /api/v1/satellites/68911 · /tle

For live sub-satellite position, see the globe view (requires WebGL).

§ Visibility from observer

Set your observer location to see the next 7 days of passes ≥ 10°. The values pass through the URL so the page stays shareable.

No JS? Fill the form by hand. The geolocation button needs JavaScript.